TimeCDT,TemperatureF,Dew PointF,Humidity,Sea Level PressureIn,VisibilityMPH,Wind Direction,Wind SpeedMPH,Gust SpeedMPH,PrecipitationIn,Events,Conditions,WindDirDegrees,DateUTC
12:15 AM,50.0,37.4,62,29.77,10.0,West,5.8,-,N/A,,Clear,260,2012-10-03 05:15:00
12:35 AM,50.0,39.2,66,29.77,10.0,West,8.1,-,N/A,,Clear,270,2012-10-03 05:35:00
12:55 AM,51.8,42.8,71,29.77,10.0,WNW,6.9,-,N/A,,Clear,290,2012-10-03 05:55:00
1:15 AM,53.6,41.0,62,29.78,10.0,WNW,8.1,-,N/A,,Clear,300,2012-10-03 06:15:00
1:35 AM,53.6,41.0,62,29.79,10.0,WNW,10.4,-,N/A,,Clear,300,2012-10-03 06:35:00
1:55 AM,53.6,41.0,62,29.79,10.0,WNW,10.4,-,N/A,,Clear,290,2012-10-03 06:55:00
2:15 AM,53.6,39.2,58,29.81,10.0,WNW,9.2,-,N/A,,Clear,290,2012-10-03 07:15:00
2:35 AM,50.0,41.0,71,29.82,10.0,West,10.4,-,N/A,,Clear,280,2012-10-03 07:35:00
2:55 AM,50.0,39.2,66,29.83,10.0,NW,11.5,-,N/A,,Clear,310,2012-10-03 07:55:00
3:15 AM,50.0,39.2,66,29.84,10.0,NW,15.0,-,N/A,,Clear,310,2012-10-03 08:15:00
3:35 AM,48.2,37.4,66,29.85,10.0,NW,15.0,-,N/A,,Clear,310,2012-10-03 08:35:00
3:55 AM,48.2,37.4,66,29.86,10.0,NW,15.0,-,N/A,,Clear,320,2012-10-03 08:55:00
4:15 AM,46.4,35.6,66,29.86,10.0,NNW,12.7,-,N/A,,Clear,330,2012-10-03 09:15:00
4:35 AM,46.4,35.6,66,29.86,10.0,NNW,15.0,20.7,N/A,,Clear,340,2012-10-03 09:35:00
4:55 AM,46.4,35.6,66,29.88,10.0,NNW,11.5,-,N/A,,Clear,340,2012-10-03 09:55:00
5:15 AM,44.6,33.8,66,29.90,10.0,NNW,6.9,-,N/A,,Clear,330,2012-10-03 10:15:00
5:35 AM,41.0,33.8,76,29.89,10.0,NNW,8.1,-,N/A,,Clear,330,2012-10-03 10:35:00
5:55 AM,41.0,33.8,76,29.88,10.0,NNW,9.2,-,N/A,,Clear,340,2012-10-03 10:55:00
6:15 AM,41.0,32.0,70,29.89,10.0,NNW,8.1,-,N/A,,Clear,330,2012-10-03 11:15:00
6:35 AM,41.0,32.0,70,29.90,10.0,NNW,9.2,-,N/A,,Clear,330,2012-10-03 11:35:00
6:55 AM,41.0,33.8,76,29.91,10.0,NW,8.1,-,N/A,,Clear,310,2012-10-03 11:55:00
7:15 AM,42.8,35.6,76,29.93,10.0,West,6.9,-,N/A,,Clear,280,2012-10-03 12:15:00
7:35 AM,41.0,33.8,76,29.94,10.0,West,8.1,-,N/A,,Clear,270,2012-10-03 12:35:00
7:55 AM,42.8,35.6,76,29.94,9.0,WNW,8.1,-,N/A,,Clear,300,2012-10-03 12:55:00
8:15 AM,42.8,35.6,76,29.94,8.0,NW,8.1,-,N/A,,Clear,310,2012-10-03 13:15:00
8:35 AM,42.8,35.6,76,29.94,9.0,NNW,9.2,-,N/A,,Clear,330,2012-10-03 13:35:00
8:55 AM,42.8,33.8,70,29.93,10.0,North,10.4,-,N/A,,Clear,350,2012-10-03 13:55:00
9:15 AM,44.6,35.6,71,29.94,10.0,North,11.5,18.4,N/A,,Clear,350,2012-10-03 14:15:00
9:35 AM,46.4,35.6,66,29.96,10.0,North,12.7,-,N/A,,Clear,350,2012-10-03 14:35:00
9:55 AM,46.4,37.4,71,29.96,9.0,North,13.8,18.4,N/A,,Clear,360,2012-10-03 14:55:00
10:15 AM,46.4,37.4,71,29.96,10.0,North,11.5,-,N/A,,Clear,10,2012-10-03 15:15:00
10:35 AM,46.4,37.4,71,29.98,10.0,NNW,13.8,-,N/A,,Partly Cloudy,340,2012-10-03 15:35:00
10:55 AM,48.2,37.4,66,29.97,10.0,NNE,10.4,-,N/A,,Scattered Clouds,20,2012-10-03 15:55:00
11:15 AM,48.2,39.2,71,29.98,10.0,NNE,11.5,-,N/A,,Scattered Clouds,20,2012-10-03 16:15:00
11:35 AM,48.2,39.2,71,29.98,10.0,NNE,6.9,-,N/A,,Scattered Clouds,20,2012-10-03 16:35:00
11:55 AM,48.2,39.2,71,29.97,10.0,NNE,10.4,-,N/A,,Partly Cloudy,30,2012-10-03 16:55:00
12:15 PM,48.2,41.0,76,29.97,9.0,NNE,16.1,-,N/A,Rain,Light Rain,30,2012-10-03 17:15:00
12:55 PM,48.2,41.0,76,30.03,9.0,NNE,5.8,-,N/A,Rain,Light Rain,20,2012-10-03 17:55:00
1:15 PM,46.4,42.8,87,30.03,4.0,North,10.4,-,N/A,Rain,Light Rain,10,2012-10-03 18:15:00
1:35 PM,46.4,44.6,93,30.01,1.8,NNE,12.7,-,N/A,Rain,Light Rain,30,2012-10-03 18:35:00
1:55 PM,46.4,44.6,93,30.00,3.0,NNE,10.4,-,N/A,Rain,Light Rain,20,2012-10-03 18:55:00
2:15 PM,46.4,44.6,93,29.99,3.0,NNE,12.7,-,N/A,Rain,Light Rain,20,2012-10-03 19:15:00
2:35 PM,46.4,44.6,93,29.98,2.5,North,17.3,25.3,N/A,Rain,Light Rain,10,2012-10-03 19:35:00
2:55 PM,46.4,42.8,87,29.98,2.5,North,18.4,24.2,N/A,Rain,Rain,10,2012-10-03 19:55:00
3:15 PM,44.6,42.8,93,30.01,5.0,NNE,13.8,21.9,N/A,Rain,Light Rain,20,2012-10-03 20:15:00
3:35 PM,44.6,42.8,93,30.01,6.0,North,12.7,20.7,N/A,Rain,Light Rain,10,2012-10-03 20:35:00
3:55 PM,44.6,41.0,87,30.03,10.0,North,15.0,19.6,N/A,Rain,Light Rain,360,2012-10-03 20:55:00
4:15 PM,44.6,41.0,87,30.05,8.0,North,16.1,21.9,N/A,Rain,Light Rain,360,2012-10-03 21:15:00
4:35 PM,44.6,41.0,87,30.05,2.5,North,15.0,21.9,N/A,Rain,Light Rain,360,2012-10-03 21:35:00
4:55 PM,42.8,41.0,93,30.05,3.0,North,15.0,19.6,N/A,Rain,Light Rain,360,2012-10-03 21:55:00
5:15 PM,42.8,41.0,93,30.06,5.0,North,18.4,23.0,N/A,Rain,Light Rain,360,2012-10-03 22:15:00
5:55 PM,42.8,39.2,87,30.06,5.0,North,20.7,29.9,N/A,,Overcast,360,2012-10-03 22:55:00
6:15 PM,41.0,39.2,93,30.06,5.0,North,18.4,24.2,N/A,,Overcast,10,2012-10-03 23:15:00
6:35 PM,41.0,39.2,93,30.07,3.0,North,19.6,25.3,N/A,,Overcast,360,2012-10-03 23:35:00
6:55 PM,41.0,41.0,100,30.07,3.0,North,20.7,29.9,N/A,Rain,Rain,350,2012-10-03 23:55:00
7:15 PM,41.0,39.2,93,30.08,4.0,North,20.7,29.9,N/A,,Mostly Cloudy,360,2012-10-04 00:15:00
7:35 PM,41.0,39.2,93,30.08,5.0,North,19.6,31.1,N/A,,Overcast,360,2012-10-04 00:35:00
7:55 PM,41.0,39.2,93,30.08,7.0,North,23.0,31.1,N/A,,Mostly Cloudy,10,2012-10-04 00:55:00
8:15 PM,41.0,39.2,93,30.06,10.0,North,21.9,28.8,N/A,Rain,Light Rain,10,2012-10-04 01:15:00
8:35 PM,41.0,37.4,87,30.06,10.0,North,21.9,29.9,N/A,,Scattered Clouds,10,2012-10-04 01:35:00
8:55 PM,41.0,37.4,87,30.06,10.0,North,23.0,32.2,N/A,Rain,Light Rain,10,2012-10-04 01:55:00
9:35 PM,41.0,37.4,87,30.09,10.0,North,18.4,29.9,N/A,,Mostly Cloudy,10,2012-10-04 02:35:00
9:55 PM,41.0,37.4,87,30.09,10.0,North,18.4,24.2,N/A,Rain,Light Rain,10,2012-10-04 02:55:00
10:15 PM,39.2,37.4,93,30.09,8.0,North,18.4,26.5,N/A,,Overcast,360,2012-10-04 03:15:00
10:35 PM,39.2,39.2,100,30.09,8.0,North,16.1,25.3,N/A,,Overcast,10,2012-10-04 03:35:00
10:55 PM,39.2,39.2,100,30.09,10.0,North,17.3,26.5,N/A,,Overcast,10,2012-10-04 03:55:00
11:15 PM,39.2,37.4,93,30.09,6.0,NNE,24.2,28.8,N/A,,Overcast,20,2012-10-04 04:15:00
11:35 PM,39.2,37.4,93,30.09,6.0,NNE,20.7,29.9,N/A,,Overcast,20,2012-10-04 04:35:00
11:55 PM,39.2,37.4,93,30.08,6.0,NNE,27.6,33.4,N/A,,Overcast,20,2012-10-04 04:55:00